K8JWL-13 Weather Reports


Display with metric or nautical units.
time (UTC)temp
F
wind
direction
speed
MPH
gust
MPH
rain 1hr
in
rain 24hr
in
rain mn
in
humidity
%
barometer
mb
20260505235242 60 284 3.0 0.0 157.89 0.00 0.39 91 1007.8
20260505234742 60 271 1.0 0.0 157.88 0.00 0.38 91 1007.8
20260505233742 60 267 2.0 0.0 157.87 0.00 0.37 91 1007.8
20260505233242 60 259 4.0 0.0 157.86 0.00 0.36 91 1007.8
20260505232743 60 221 3.0 0.0 157.84 0.00 0.34 91 1007.8
20260505232242 60 207 2.0 0.0 157.83 0.00 0.33 91 1007.9
20260505231742 60 166 4.0 0.0 157.83 0.00 0.33 91 1008.0
20260505231245 60 350 3.0 0.0 157.82 0.00 0.32 90 1008.0
20260505230742 60 273 5.0 0.0 157.80 0.00 0.30 90 1008.1
20260505230242 61 336 3.0 0.0 157.79 0.00 0.29 90 1008.1
20260505225743 61 152 1.0 0.0 157.79 0.00 0.29 90 1008.2
20260505225242 61 172 0.0 0.0 157.78 0.00 0.28 90 1008.3
20260505224742 61 179 1.0 0.0 157.77 0.00 0.27 90 1008.3
20260505224243 61 260 4.0 0.0 157.76 0.00 0.26 90 1008.4
20260505223742 61 281 4.0 0.0 157.75 0.00 0.25 90 1008.5
20260505223242 61 264 1.0 0.0 157.75 0.00 0.25 90 1008.5
20260505222242 61 266 4.0 0.0 157.73 0.00 0.23 89 1008.6
20260505221742 61 259 4.0 0.0 157.73 0.00 0.23 89 1008.7
20260505221243 61 312 1.0 0.0 157.72 0.00 0.22 89 1008.6
20260505220743 61 266 5.0 0.0 157.71 0.00 0.21 89 1008.5
20260505215745 61 290 5.0 0.0 157.71 0.00 0.21 89 1008.4
20260505215242 61 267 4.0 0.0 157.70 0.00 0.20 88 1008.4
20260505214943 61 248 2.0 0.0 157.70 0.00 0.20 88 1008.4
20260505214742 61 248 2.0 0.0 157.70 0.00 0.20 88 1008.4
20260505214502 62 291 4.0 0.0 157.69 0.00 0.19 88 1008.3
20260505214301 62 287 2.0 0.0 157.69 0.00 0.19 88 1008.3
20260505214243 62 291 4.0 0.0 157.69 0.00 0.19 88 1008.3
20260505213742 62 287 2.0 0.0 157.69 0.00 0.19 88 1008.3
20260505213244 62 240 5.0 0.0 157.68 0.00 0.18 87 1008.3
20260505212744 62 319 2.0 0.0 157.68 0.00 0.18 87 1008.2
20260505212242 62 321 4.0 0.0 157.67 0.00 0.17 87 1008.2
20260505211843 63 287 3.0 0.0 157.65 0.00 0.15 85 1008.2
20260505211742 62 300 4.0 0.0 157.66 0.00 0.16 86 1008.3
20260505211242 63 287 3.0 0.0 157.65 0.00 0.15 85 1008.2
20260505210742 63 307 4.0 0.0 157.64 0.00 0.14 84 1008.3
20260505210242 64 249 9.0 0.0 157.61 0.00 0.11 80 1008.3
20260505205743 67 291 4.0 0.0 157.56 0.00 0.06 73 1008.3
20260505205242 68 297 14.0 0.0 157.53 0.00 0.03 64 1007.8
20260505205114 69 271 5.0 0.0 157.51 0.00 0.01 61 1007.4
20260505205058 69 200 4.0 0.0 157.51 0.00 0.01 60 1007.3
20260505204742 69 271 5.0 0.0 157.51 0.00 0.01 61 1007.4
20260505204242 69 200 4.0 0.0 157.51 0.00 0.01 60 1007.3
20260505203743 68 232 4.0 0.0 157.51 0.00 0.01 59 1007.4
20260505202743 69 267 13.0 0.0 157.51 0.00 0.01 59 1007.6
20260505202242 69 278 8.0 0.0 157.51 0.00 0.01 59 1007.7
20260505201742 69 108 3.0 0.0 157.51 0.00 0.01 58 1007.7
20260505201647 69 256 4.0 0.0 157.51 0.00 0.01 58 1007.7
20260505201242 69 256 4.0 0.0 157.51 0.00 0.01 58 1007.7
20260505200742 69 325 3.0 0.0 157.51 0.00 0.01 58 1007.8
20260505200242 69 242 10.0 0.0 157.51 0.00 0.01 58 1007.9
20260505195243 69 264 6.0 0.0 157.51 0.00 0.01 59 1008.0
20260505194742 69 293 2.0 0.0 157.51 0.00 0.01 58 1008.1
20260505193743 69 266 11.0 0.0 157.51 0.00 0.01 58 1008.3
20260505192742 68 257 1.0 0.0 157.51 0.00 0.01 59 1008.3
20260505192242 69 259 7.0 0.0 157.51 0.00 0.01 59 1008.4
20260505191742 68 278 9.0 0.0 157.51 0.00 0.01 59 1008.5
20260505191245 68 249 10.0 0.0 157.51 0.00 0.01 60 1008.5
20260505190743 68 267 6.0 0.0 157.51 0.00 0.01 59 1008.6
20260505190243 68 322 5.0 0.0 157.51 0.00 0.01 60 1008.5
20260505185744 68 277 12.0 0.0 157.51 0.00 0.01 61 1008.6
20260505183742 68 253 3.0 0.0 157.51 0.00 0.01 61 1008.7
20260505183242 69 253 5.0 0.0 157.51 0.00 0.01 61 1008.8
20260505182744 69 210 2.0 0.0 157.51 0.00 0.01 61 1008.7
20260505182242 69 249 10.0 0.0 157.51 0.00 0.01 60 1008.8
20260505181742 69 314 3.0 0.0 157.51 0.00 0.01 59 1008.8
20260505180743 69 246 11.0 0.0 157.51 0.00 0.01 60 1009.0
20260505180242 69 55 1.0 0.0 157.51 0.00 0.01 59 1008.7
20260505175745 69 316 4.0 0.0 157.51 0.00 0.01 59 1008.7
20260505175242 69 146 3.0 0.0 157.51 0.00 0.01 59 1008.7
20260505174742 70 197 5.0 0.0 157.51 0.00 0.01 59 1008.7
20260505174245 70 243 1.0 0.0 157.51 0.00 0.01 58 1008.6
20260505173742 70 224 3.0 0.0 157.51 0.00 0.01 58 1008.7
20260505173242 70 228 5.0 0.0 157.51 0.00 0.01 58 1008.8
20260505172744 70 124 4.0 0.0 157.51 0.00 0.01 58 1008.9
20260505172242 70 135 2.0 0.0 157.51 0.00 0.01 57 1008.9
20260505171743 71 221 3.0 0.0 157.51 0.00 0.01 57 1008.9
20260505171243 71 224 5.0 0.0 157.51 0.00 0.01 56 1009.0
20260505170242 71 347 6.0 0.0 157.51 0.00 0.01 55 1008.9
20260505165242 71 271 6.0 0.0 157.51 0.00 0.01 54 1008.9
20260505164742 71 256 8.0 0.0 157.51 0.00 0.01 54 1008.9
20260505164242 71 284 7.0 0.0 157.51 0.00 0.01 54 1009.0
20260505163742 71 224 3.0 0.0 157.51 0.00 0.01 54 1008.9
20260505162742 70 294 3.0 0.0 157.51 0.00 0.01 54 1008.9
20260505162242 70 249 4.0 0.0 157.51 0.00 0.01 54 1009.1
20260505161850 70 307 14.0 0.0 157.51 0.00 0.01 56 1009.2
20260505161742 70 214 3.0 0.0 157.51 0.00 0.01 56 1009.1
20260505161242 70 307 14.0 0.0 157.51 0.00 0.01 56 1009.2
20260505160743 69 262 11.0 0.0 157.51 0.00 0.01 58 1009.5
20260505160242 69 280 5.0 0.0 157.51 0.00 0.01 58 1009.5
20260505153242 67 274 4.0 0.0 157.51 0.00 0.01 63 1009.5
20260505152742 67 290 8.0 0.0 157.51 0.00 0.01 64 1009.3
20260505152534 66 143 1.0 0.0 157.51 0.00 0.01 65 1009.0
20260505152242 67 131 2.0 0.0 157.51 0.00 0.01 65 1009.1
20260505151742 66 143 1.0 0.0 157.51 0.00 0.01 65 1009.0
20260505130242 61 222 3.0 0.0 157.51 0.00 0.01 79 1008.2
20260505124741 61 231 4.0 0.0 157.51 0.00 0.01 79 1008.4
20260505124242 61 259 3.0 0.0 157.51 0.00 0.01 79 1008.3
20260505123741 61 243 6.0 0.0 157.51 0.00 0.01 78 1008.3
20260505123330 61 288 5.0 0.0 157.51 0.00 0.01 78 1008.3
20260505123241 61 250 5.0 0.0 157.51 0.00 0.01 78 1008.2
20260505122826 60 297 0.0 0.0 157.51 0.00 0.01 78 1008.2
20260505122742 61 288 5.0 0.0 157.51 0.00 0.01 78 1008.3
20260505122241 60 297 0.0 0.0 157.51 0.00 0.01 78 1008.2
20260505121741 60 305 5.0 0.0 157.51 0.00 0.01 78 1008.1
20260505120741 60 208 0.0 0.0 157.51 0.00 0.01 78 1007.6
20260505115742 60 294 9.0 0.0 157.51 0.00 0.01 78 1007.6
20260505115241 60 293 7.0 0.0 157.51 0.00 0.01 78 1007.2
20260505114741 60 1 3.0 0.0 157.51 0.00 0.01 78 1007.1
20260505114242 60 359 7.0 0.0 157.51 0.00 0.01 78 1006.0
20260505113741 60 235 8.0 0.0 157.51 0.00 0.01 78 1005.9
20260505113241 60 215 7.0 0.0 157.51 0.00 0.01 79 1005.6
20260505112742 60 259 4.0 0.0 157.51 0.00 0.01 80 1005.3
20260505112242 60 139 8.0 0.0 157.51 0.00 0.01 80 1005.3
20260505111741 59 180 6.0 0.0 157.51 0.00 0.01 80 1005.3
20260505111241 59 193 7.0 0.0 157.51 0.00 0.01 81 1005.3
20260505110741 59 208 5.0 0.0 157.51 0.00 0.01 81 1005.4
20260505110242 59 214 5.0 0.0 157.51 0.00 0.01 81 1005.6
20260505102148 60 302 6.0 0.0 157.51 0.00 0.01 77 1007.4
20260505101741 60 302 6.0 0.0 157.51 0.00 0.01 77 1007.4
20260505101242 61 249 4.0 0.0 157.51 0.00 0.01 76 1007.6
20260505100241 62 260 4.0 0.0 157.51 0.00 0.01 74 1007.7
20260505095741 62 277 4.0 0.0 157.51 0.00 0.01 72 1007.7
20260505095241 62 243 6.0 0.0 157.50 0.00 0.00 70 1007.8
20260505094741 62 288 6.0 0.0 157.50 0.00 0.00 69 1007.6
20260505093741 63 246 2.0 0.0 157.50 0.00 0.00 69 1007.6
20260505093352 63 260 3.0 0.0 157.50 0.00 0.00 69 1007.5
20260505093241 63 260 3.0 0.0 157.50 0.00 0.00 69 1007.5
20260505092241 63 343 0.0 0.0 157.50 0.00 0.00 68 1007.3
20260505091741 63 245 4.0 0.0 157.50 0.00 0.00 68 1007.4
20260505091242 63 269 1.0 0.0 157.50 0.00 0.00 67 1007.3
20260505090741 64 270 1.0 0.0 157.50 0.00 0.00 67 1007.2
20260505090241 64 256 3.0 0.0 157.50 0.00 0.00 67 1007.3
20260505085742 64 249 3.0 0.0 157.50 0.00 0.00 66 1007.3
20260505085241 64 264 4.0 0.0 157.50 0.00 0.00 66 1007.4
20260505082741 64 342 4.0 0.0 157.50 0.00 0.00 64 1007.0
20260505082241 64 240 6.0 0.0 157.50 0.00 0.00 64 1006.8
20260505081741 64 6 1.0 0.0 157.50 0.00 0.00 64 1006.7
20260505081242 64 238 0.0 0.0 157.50 0.00 0.00 64 1006.6
20260505080741 64 278 1.0 0.0 157.50 0.00 0.00 64 1006.5
20260505080241 64 266 6.0 0.0 157.50 0.00 0.00 64 1006.5
20260505075742 64 276 6.0 0.0 157.50 0.00 0.00 64 1006.5
20260505075241 65 142 2.0 0.0 157.50 0.00 0.00 64 1006.5
20260505074742 65 278 7.0 0.0 157.50 0.00 0.00 64 1006.4
20260505074242 65 287 7.0 0.0 157.50 0.00 0.00 63 1006.1
20260505073241 65 222 5.0 0.0 157.50 0.00 0.00 62 1006.0
20260505072741 65 248 3.0 0.0 157.50 0.00 0.00 62 1005.9
20260505071741 65 176 3.0 0.0 157.50 0.00 0.00 62 1005.8
20260505071241 65 221 7.0 0.0 157.50 0.00 0.00 62 1005.6
20260505070741 65 212 1.0 0.0 157.50 0.00 0.00 63 1005.7
20260505070241 65 228 9.0 0.0 157.50 0.00 0.00 63 1005.8
20260505065741 65 250 6.0 0.0 157.50 0.00 0.00 62 1005.8
20260505065241 65 266 6.0 0.0 157.50 0.00 0.00 61 1005.8
20260505064742 66 203 2.0 0.0 157.50 0.00 0.00 61 1005.7
20260505063742 66 158 2.0 0.0 157.50 0.00 0.00 61 1005.6
20260505063241 66 176 2.0 0.0 157.50 0.00 0.00 61 1005.5
20260505061742 66 205 10.0 0.0 157.50 0.00 0.00 60 1005.4
20260505061241 66 273 5.0 0.0 157.50 0.00 0.00 60 1005.3
20260505060742 66 232 6.0 0.0 157.50 0.00 0.00 60 1005.4
20260505060241 66 200 2.0 0.0 157.50 0.00 0.00 60 1005.3
20260505055743 66 160 1.0 0.0 157.50 0.00 0.00 60 1005.4
20260505054741 66 3 1.0 0.0 157.50 0.00 0.00 60 1005.5
20260505054241 66 158 4.0 0.0 157.50 0.00 0.00 60 1005.5
20260505053241 66 269 13.0 0.0 157.50 0.00 0.00 59 1005.6
20260505052242 66 224 3.0 0.0 157.50 0.00 0.00 60 1005.6
20260505051741 66 212 4.0 0.0 157.50 0.00 0.00 60 1005.7
20260505050741 66 194 4.0 0.0 157.50 0.00 0.00 61 1005.9
20260505050242 66 188 3.0 0.0 157.50 0.00 0.00 61 1006.0
20260505041740 66 143 7.0 0.0 157.50 0.00 0.00 60 1006.0
20260505041241 66 235 2.0 0.0 157.50 0.00 0.00 60 1006.1
20260505040242 66 232 1.0 0.0 157.50 0.00 0.00 60 1006.1
20260505035743 66 218 4.0 0.0 157.50 0.00 0.00 60 1006.1
20260505034740 67 187 4.0 0.0 157.50 0.00 0.00 59 1006.2
20260505034242 66 194 4.0 0.0 157.50 0.00 0.00 59 1006.2
20260505033740 67 197 5.0 0.0 157.50 0.00 0.00 59 1006.4
20260505033242 67 191 1.0 0.0 157.50 0.00 0.00 59 1006.4
20260505032741 67 204 1.0 0.0 157.50 0.00 0.00 59 1006.2
20260505032242 67 239 2.0 0.0 157.50 0.00 0.00 59 1006.2
20260505031740 67 183 2.0 0.0 157.50 0.00 0.00 59 1006.2
20260505031241 67 180 1.0 0.0 157.50 0.00 0.00 59 1006.2
20260505030740 67 113 3.0 0.0 157.50 0.00 0.00 59 1006.2
20260505030240 67 290 0.0 0.0 157.50 0.00 0.00 58 1006.2
20260505025743 67 262 3.0 0.0 157.50 0.00 0.00 58 1006.1
20260505025242 67 250 1.0 0.0 157.50 0.00 0.00 59 1006.2
20260505024241 67 118 3.0 0.0 157.50 0.00 0.00 59 1006.0
20260505023740 67 191 1.0 0.0 157.50 0.00 0.00 59 1005.9
20260505023244 67 179 3.0 0.0 157.50 0.00 0.00 59 1005.9
20260505022741 67 248 2.0 0.0 157.50 0.00 0.00 59 1005.9
20260505022240 67 262 3.0 0.0 157.50 0.00 0.00 59 1006.0
20260505021740 67 208 5.0 0.0 157.50 0.00 0.00 59 1005.9
20260505021241 67 211 2.0 0.0 157.50 0.00 0.00 59 1005.9
20260505020742 67 350 2.0 0.0 157.50 0.00 0.00 58 1005.9
20260505020240 67 270 5.0 0.0 157.50 0.00 0.00 59 1005.9
20260505015741 67 194 2.0 0.0 157.50 0.00 0.00 59 1006.0
20260505015240 67 270 1.0 0.0 157.50 0.00 0.00 59 1005.9
20260505013240 67 295 3.0 0.0 157.50 0.00 0.00 58 1005.8
20260505012242 68 135 0.0 0.0 157.50 0.00 0.00 58 1005.6
20260505011742 68 135 1.0 0.0 157.50 0.00 0.00 57 1005.4
20260505010741 68 124 2.0 0.0 157.50 0.00 0.00 56 1005.5
20260505005741 69 148 1.0 0.0 157.50 0.00 0.00 55 1005.5
20260505005241 69 207 1.0 0.0 157.50 0.00 0.00 54 1005.6
20260505004741 69 249 0.0 0.0 157.50 0.00 0.00 53 1005.6
20260505004242 69 222 2.0 0.0 157.50 0.00 0.00 53 1005.6
20260505003742 70 228 1.0 0.0 157.50 0.00 0.00 52 1005.5
20260505003241 70 274 4.0 0.0 157.50 0.00 0.00 52 1005.6
20260505002741 70 270 0.0 0.0 157.50 0.00 0.00 51 1005.6
20260505002241 70 298 1.0 0.0 157.50 0.00 0.00 50 1005.6
20260505001741 71 153 1.0 0.0 157.50 0.00 0.00 50 1005.6
20260505001648 71 142 0.0 0.0 157.50 0.00 0.00 49 1005.6
20260505001241 71 142 0.0 0.0 157.50 0.00 0.00 49 1005.6
20260505000241 72 150 4.0 0.0 157.50 0.00 0.00 48 1005.5
20260504235744 72 215 3.0 0.0 157.50 0.00 0.00 48 1005.6
20260504235559 72 186 2.0 0.0 157.50 0.00 0.00 47 1005.6